Regional Weather Roundup
Issued by NWS

Home | Current Version | Previous Version | Text Only | Print | Product List | Glossary On
Versions: 1 2 3 4 5 6 7 8 9 10 11 12 13 14 15 16 17 18 19 20 21 22 23
000
ASPQ40 PGUM 011412
RWRPQ
WEATHER ROUNDUP FOR THE MARIANAS AND MICRONESIA
NATIONAL WEATHER SERVICE TIYAN GU
1200 AM CHST THU OCT 02 2014

GUZ001>004-011500-
MARIANA ISLANDS-

CITY           SKY/WX    TMP DP  RH WIND       PRES   REMARKS
GUAM AIRPORT   PTCLDY    81  77  89 S6        29.63F
ANDERSEN AFB   PTCLDY    79  75  89 SW15      29.63F
ROTA AIRPORT   NOT AVBL
TINIAN AP      NOT AVBL
SAIPAN AP      MOCLDY    82  79  89 S12G22    29.63S HX  93

$$

PMZ161-011500-
REPUBLIC OF PALAU-

CITY           SKY/WX    TMP DP  RH WIND       PRES   REMARKS
KOROR AP       LGT RAIN  75  73  94 W12       29.78F
KOROR WSO      LGT RAIN  77  75  94 W9        29.78F

$$

PMZ171>174-011500-
FEDERATED STATES OF MICRONESIA-

CITY           SKY/WX    TMP DP  RH WIND       PRES   REMARKS
YAP AIRPORT    MOCLDY    82  75  78 VRB7      29.69F
CHUUK AP       MOCLDY    81  79  94 VRB6      29.78F
POHNPEI AP     NOT AVBL
POHNPEI WSO    LGT RAIN  79  77  94 S3        29.79F
KOSRAE AP      NOT AVBL

$$

PMZ181-011500-
REPUBLIC OF THE MARSHALL ISLANDS-

CITY           SKY/WX    TMP DP  RH WIND       PRES   REMARKS
KWAJALEIN AP   LGT RAIN  79  75  89 SE8       29.72F
MAJURO AP      NOT AVBL
MAJURO WSO     MOCLDY    82  77  83 CALM      29.73F HX  91

$$



USA.gov is the U.S. government's official web portal to all federal, state and local government web resources and services.